Regional Weather Roundup
Issued by NWS

Home | Current Version | Previous Version | Text Only | Print | Product List | Glossary On
Versions: 1 2 3 4 5 6 7 8 9 10 11 12 13 14 15 16 17 18 19 20 21 22 23 24 25 26 27 28 29 30 31 32 33 34 35 36 37 38 39 40 41 42 43 44 45 46 47 48 49 50
000
ASCA42 TJSJ 280611
RWRPR
PUERTO RICO/U.S. VIRGIN ISLANDS HOURLY WEATHER ROUNDUP
NATIONAL WEATHER SERVICE SAN JUAN PR
200 AM AST MON JUL 28 2014

PRZ001-004-280700-
PUERTO RICO

CITY           SKY/WX    TMP DP  RH WIND       PRES   REMARKS
SAN JUAN LMM   PTCLDY    81  75  83 E5        30.08F
PONCE          PTCLDY    77  72  83 NE6       30.02F
AGUADILLA      CLEAR     77  73  88 CALM      30.09F
CEIBA          CLOUDY    81  73  78 NE3       30.11F
$$

PRZ006-007-280700-
U.S. VIRGIN ISLANDS

CITY           SKY/WX    TMP DP  RH WIND       PRES   REMARKS
CHARLOTTE AMA  PTCLDY    82  75  78 E7        30.07F
CHRISTIANSTED  CLEAR     79  73  83 E6        30.07F
$$

HOURLY WEATHER ROUNDUP FOR THE NEWS MEDIA

CITY           SKY/WX    TMP DP  RH WIND       PRES   REMARKS
MIAMI          MOCLDY    83  74  74 S5        30.09F
ORLANDO        CLEAR     81  75  82 SW8       30.04F
NEW YORK       TSTM      75  72  90 S10       29.63F
NEWARK         TSTM      74  72  93 SE3       29.60F
CHICAGO        CLOUDY    66  51  58 N16G26    29.92R
HARTFORD       CLOUDY    72  70  93 SW7       29.67F
BOSTON         PTCLDY    68  67  96 S5        29.66F
DALLAS         CLEAR     89  68  49 SW5       30.01S HX  93
PHILADELPHIA   TSTM      71  67  87 S10       29.63S



USA.gov is the U.S. government's official web portal to all federal, state and local government web resources and services.